CES0319 ZSFZ-ZSPD

Flight info

Callsign CES0319
Flight time N/A
Altitude 26600
Route LJG B221 SHZ W58 XSY
Aircraft A21N/M-SDE3FGHIRWY/LB1

Departure

Time 2026-05-07 14:36
Airport Fuzhou Changle International Airport (ZSFZ)

Arrival

Time N/A
Airport Shanghai Pudong International Airport (ZSPD)
Time Latitude Longitude Altitude Speed Heading
2026-05-07 14:16 25.93388 119.66827 55 ft 0 kts 117°
2026-05-07 14:22 25.93393 119.66815 55 ft 2 kts 117°
2026-05-07 14:22 25.93400 119.66801 55 ft 2 kts 118°
2026-05-07 14:23 25.93407 119.66785 55 ft 2 kts 117°
2026-05-07 14:23 25.93414 119.66771 55 ft 2 kts 119°
2026-05-07 14:23 25.93424 119.66760 55 ft 2 kts 156°
2026-05-07 14:23 25.93439 119.66756 55 ft 2 kts 184°
2026-05-07 14:24 25.93450 119.66758 55 ft 0 kts 205°
2026-05-07 14:24 25.93456 119.66762 55 ft 0 kts 208°
2026-05-07 14:24 25.93457 119.66763 55 ft 0 kts 208°
2026-05-07 14:24 25.93456 119.66762 55 ft 0 kts 208°
2026-05-07 14:26 25.93455 119.66762 55 ft 0 kts 208°
2026-05-07 14:26 25.93448 119.66757 55 ft 1 kts 208°
2026-05-07 14:27 25.93435 119.66750 55 ft 2 kts 208°
2026-05-07 14:27 25.93415 119.66737 55 ft 3 kts 208°
2026-05-07 14:27 25.93389 119.66722 55 ft 4 kts 208°
2026-05-07 14:27 25.93357 119.66703 55 ft 5 kts 215°
2026-05-07 14:28 25.93342 119.66664 55 ft 6 kts 279°
2026-05-07 14:28 25.93341 119.66616 55 ft 6 kts 240°
2026-05-07 14:28 25.93301 119.66585 55 ft 7 kts 210°
2026-05-07 14:28 25.93252 119.66557 55 ft 8 kts 207°
2026-05-07 14:29 25.93197 119.66525 55 ft 9 kts 207°
2026-05-07 14:29 25.93137 119.66492 55 ft 10 kts 207°
2026-05-07 14:29 25.93072 119.66455 55 ft 10 kts 207°
2026-05-07 14:29 25.93004 119.66417 55 ft 11 kts 207°
2026-05-07 14:30 25.92930 119.66376 55 ft 11 kts 207°
2026-05-07 14:30 25.92855 119.66334 55 ft 12 kts 207°
2026-05-07 14:30 25.92776 119.66289 55 ft 12 kts 207°
2026-05-07 14:30 25.92696 119.66244 55 ft 13 kts 207°
2026-05-07 14:31 25.92613 119.66197 55 ft 13 kts 207°
2026-05-07 14:31 25.92534 119.66142 55 ft 13 kts 239°
2026-05-07 14:31 25.92527 119.66045 55 ft 12 kts 244°
2026-05-07 14:31 25.92457 119.65989 55 ft 12 kts 207°
2026-05-07 14:32 25.92375 119.65943 55 ft 13 kts 206°
2026-05-07 14:32 25.92292 119.65898 55 ft 13 kts 206°
2026-05-07 14:32 25.92208 119.65851 55 ft 13 kts 208°
2026-05-07 14:32 25.92121 119.65801 55 ft 13 kts 207°
2026-05-07 14:33 25.92034 119.65752 55 ft 14 kts 207°
2026-05-07 14:33 25.92009 119.65738 55 ft 3 kts 210°
2026-05-07 14:33 25.91989 119.65717 55 ft 4 kts 237°
2026-05-07 14:33 25.91984 119.65682 55 ft 5 kts 280°
2026-05-07 14:34 25.91997 119.65642 55 ft 5 kts 291°
2026-05-07 14:34 25.92015 119.65598 55 ft 6 kts 296°
2026-05-07 14:34 25.92043 119.65560 55 ft 6 kts 339°
2026-05-07 14:34 25.92092 119.65563 55 ft 7 kts 15°
2026-05-07 14:35 25.92143 119.65590 55 ft 13 kts 27°
2026-05-07 14:35 25.92433 119.65752 55 ft 79 kts 27°
2026-05-07 14:35 25.93115 119.66138 55 ft 138 kts 26°
2026-05-07 14:35 25.94119 119.66703 103 ft 180 kts 27°
2026-05-07 14:36 25.95214 119.67331 778 ft 173 kts 28°
2026-05-07 14:36 25.96251 119.67929 1489 ft 168 kts 28°
2026-05-07 14:36 25.97293 119.68503 2071 ft 170 kts 25°
2026-05-07 14:36 25.98420 119.69030 2468 ft 185 kts 22°
2026-05-07 14:37 25.99679 119.69588 2839 ft 203 kts 22°
2026-05-07 14:37 26.02502 119.70749 3879 ft 227 kts 16°
2026-05-07 14:37 26.04031 119.71249 4530 ft 233 kts 16°
2026-05-07 14:38 26.05626 119.71684 5209 ft 237 kts 10°
2026-05-07 14:38 26.07262 119.72053 5730 ft 248 kts 16°
2026-05-07 14:38 26.08994 119.72435 6205 ft 260 kts 358°
2026-05-07 14:38 26.10731 119.71934 6850 ft 262 kts 329°
2026-05-07 14:39 26.12079 119.70586 7526 ft 263 kts 307°
2026-05-07 14:39 26.13121 119.68927 8184 ft 265 kts 303°
2026-05-07 14:39 26.14132 119.67214 8825 ft 266 kts 302°
2026-05-07 14:39 26.15173 119.65500 9419 ft 268 kts 303°
2026-05-07 14:40 26.16240 119.63801 10014 ft 269 kts 303°
2026-05-07 14:40 26.17320 119.62109 10582 ft 271 kts 304°
2026-05-07 14:40 26.18418 119.60407 11135 ft 272 kts 304°
2026-05-07 14:40 26.19520 119.58704 11674 ft 273 kts 304°
2026-05-07 14:41 26.20820 119.57169 12145 ft 279 kts 325°
2026-05-07 14:41 26.22655 119.56441 12621 ft 287 kts 352°
2026-05-07 14:41 26.24686 119.56721 12911 ft 304 kts 19°
2026-05-07 14:41 26.26566 119.57935 13137 ft 320 kts 30°
2026-05-07 14:42 26.28456 119.59305 13348 ft 331 kts 30°
2026-05-07 14:42 26.30431 119.60709 13566 ft 343 kts 29°
2026-05-07 14:42 26.32494 119.62162 13773 ft 355 kts 29°
2026-05-07 14:42 26.34618 119.63653 13974 ft 366 kts 29°
2026-05-07 14:43 26.36808 119.65189 14164 ft 377 kts 29°
2026-05-07 14:43 26.39054 119.66763 14345 ft 387 kts 30°
2026-05-07 14:43 26.41364 119.68385 14517 ft 397 kts 30°
2026-05-07 14:43 26.43724 119.70040 14683 ft 407 kts 30°
2026-05-07 14:44 26.46139 119.71736 14820 ft 414 kts 30°
2026-05-07 14:44 26.48598 119.73466 14933 ft 419 kts 30°
2026-05-07 14:44 26.51079 119.75217 15032 ft 424 kts 30°
2026-05-07 14:44 26.53599 119.76997 15142 ft 430 kts 30°
2026-05-07 14:45 26.56146 119.78798 15240 ft 435 kts 30°
2026-05-07 14:45 26.58721 119.80618 15372 ft 439 kts 30°
2026-05-07 14:45 26.61307 119.82449 15629 ft 441 kts 30°
2026-05-07 14:45 26.63910 119.84293 15868 ft 443 kts 29°
2026-05-07 14:46 26.66515 119.86131 16099 ft 445 kts 29°
2026-05-07 14:46 26.69139 119.87973 16333 ft 448 kts 29°
2026-05-07 14:46 26.71780 119.89826 16606 ft 449 kts 29°
2026-05-07 14:46 26.74430 119.91689 16858 ft 452 kts 29°
2026-05-07 14:47 26.77117 119.93580 17100 ft 454 kts 29°
2026-05-07 14:47 26.79798 119.95467 17371 ft 456 kts 29°
2026-05-07 14:47 26.82495 119.97369 17632 ft 458 kts 29°
2026-05-07 14:47 26.85181 119.99264 17886 ft 460 kts 29°
2026-05-07 14:48 26.87893 120.01178 18154 ft 462 kts 29°
2026-05-07 14:48 26.90623 120.03105 18399 ft 464 kts 29°
2026-05-07 14:48 26.93352 120.05035 18689 ft 464 kts 29°
2026-05-07 14:48 26.96085 120.06968 18956 ft 465 kts 29°
2026-05-07 14:49 26.98829 120.08909 19189 ft 467 kts 29°
2026-05-07 14:49 27.01582 120.10860 19414 ft 469 kts 29°
2026-05-07 14:49 27.04379 120.12839 19624 ft 471 kts 29°
2026-05-07 14:49 27.07140 120.14796 19815 ft 473 kts 29°
2026-05-07 14:50 27.09908 120.16760 20020 ft 474 kts 29°
2026-05-07 14:50 27.12731 120.18762 20228 ft 476 kts 29°
2026-05-07 14:50 27.15578 120.20776 20427 ft 477 kts 29°
2026-05-07 14:50 27.18393 120.22759 20634 ft 479 kts 29°
2026-05-07 14:51 27.21210 120.24745 20841 ft 480 kts 29°
2026-05-07 14:51 27.24041 120.26741 21047 ft 481 kts 29°
2026-05-07 14:51 27.26874 120.28743 21265 ft 482 kts 29°
2026-05-07 14:51 27.29709 120.30748 21464 ft 483 kts 29°
2026-05-07 14:52 27.32550 120.32759 21660 ft 484 kts 29°
2026-05-07 14:52 27.35405 120.34782 21853 ft 485 kts 29°
2026-05-07 14:52 27.38275 120.36815 22025 ft 486 kts 29°
2026-05-07 14:52 27.41117 120.38832 22193 ft 487 kts 29°
2026-05-07 14:53 27.44003 120.40884 22374 ft 488 kts 29°
2026-05-07 14:53 27.46874 120.42926 22549 ft 489 kts 29°
2026-05-07 14:53 27.49760 120.44981 22708 ft 491 kts 29°
2026-05-07 14:53 27.52661 120.47048 22876 ft 492 kts 29°
2026-05-07 14:54 27.55521 120.49087 23025 ft 494 kts 29°
2026-05-07 14:54 27.58423 120.51157 23192 ft 494 kts 29°
2026-05-07 14:54 27.61363 120.53256 23442 ft 494 kts 29°
2026-05-07 14:54 27.64257 120.55325 23694 ft 493 kts 28°
2026-05-07 14:55 27.67118 120.57370 23917 ft 492 kts 28°
2026-05-07 14:55 27.70023 120.59449 24192 ft 491 kts 28°
2026-05-07 14:55 27.72985 120.61361 24417 ft 487 kts 21°
2026-05-07 14:55 27.76140 120.62714 24648 ft 481 kts 12°
2026-05-07 14:56 27.79376 120.63471 24876 ft 475 kts
2026-05-07 14:56 27.82668 120.63834 25095 ft 473 kts 360°
2026-05-07 14:56 27.85962 120.64114 25268 ft 474 kts 359°
2026-05-07 14:56 27.89240 120.64385 25360 ft 478 kts 359°
2026-05-07 14:57 27.92584 120.64670 25444 ft 481 kts 359°
2026-05-07 14:57 27.95919 120.64967 25517 ft 484 kts 360°
2026-05-07 14:57 27.99305 120.65280 25578 ft 486 kts
2026-05-07 14:57 28.02704 120.65595 25621 ft 489 kts
2026-05-07 14:58 28.06105 120.65922 25656 ft 492 kts
2026-05-07 14:58 28.09524 120.66260 25878 ft 489 kts
2026-05-07 14:58 28.12919 120.66600 26255 ft 484 kts
2026-05-07 14:58 28.16300 120.66936 26553 ft 481 kts 360°
2026-05-07 14:59 28.19657 120.67265 26575 ft 485 kts 360°
2026-05-07 14:59 28.23000 120.67590 26585 ft 488 kts 360°
2026-05-07 14:59 28.23419 120.67631 26586 ft 488 kts 360°